This demonstration page uses our WeatherBlox Daily Observations layout. Learn more.

Left ArrowRight Arrow

Hourly Observations for May 17, 2017

Temp ( °F °C ) Dew Point ( °F °C ) Humidity (%) Winds ( mph kmh ) Pressure ( in mb ) Visibility ( mi km ) Precip ( " mm )
12:28 am 00:28 Partly Cloudy 63 17.2 61 16.1 93 93 SSE 7 11 29.53 1000 10 16.0934 0 0.0254
12:38 am 00:38 Mostly Cloudy 63 17.2 61 16.1 93 93 SE 7 11 29.53 1000 10 16.0934 0 0.0254
12:54 am 00:54 Cloudy 63 17.2 60 15.6 90 90 SE 10 17 29.48 998 10 16.0934 0 0.0254
1:54 am 01:54 Cloudy 63 17.2 60 15.6 90 90 ESE 18 30 29.44 997 10 16.0934 0 0
2:05 am 02:05 Cloudy 63 17.2 60 15.6 90 90 SE 14 22 29.47 998 10 16.0934 0 0
2:41 am 02:41 Cloudy with Nearby Thunderstorms 63 17.2 60 15.6 90 90 S 15 24 29.47 998 10 16.0934 0 0.0254
2:50 am 02:50 Cloudy with Nearby Thunderstorms 64 18 61 16 88 88 S 16 26 29.47 998 7 11.26538 0 0.0254
2:54 am 02:54 Cloudy with Nearby Thunderstorms 63 17.2 61 16.1 93 93 S 16 26 29.44 997 3 4.82802 0.02 0.508
2:56 am 02:56 Cloudy with Heavy Rain 63 17.2 61 16.1 93 93 SSW 14 22 29.5 999 2.5 4.02335 0.03 0.762
3:01 am 03:01 Cloudy with Thunderstorms 63 17.2 62 16.7 97 97 SSW 12 19 29.5 999 2.5 4.02335 0.06 1.524
3:05 am 03:05 Cloudy with Thunderstorms 63 17.2 62 16.7 97 97 W 12 19 29.5 999 4 6.43736 0.07 1.778
3:25 am 03:25 Cloudy with Nearby Thunderstorms 63 17.2 60 15.6 90 90 S 7 11 29.5 999 8 12.87472 0.08 2.032
3:38 am 03:38 Mostly Cloudy 62 16.7 59 15 90 90 SSE 7 11 29.47 998 10 16.0934 0.08 2.032
3:54 am 03:54 Mostly Clear 62 16.7 59 15 90 90 SE 13 20 29.43 997 10 16.0934 0.08 2.032
4:54 am 04:54 Clear 61 16.1 59 15 93 93 SE 10 17 29.39 995 10 16.0934 0 0
5:54 am 05:54 Clear 60 15.6 58 14.4 93 93 S 6 9 29.43 997 10 16.0934 0 0
6:54 am 06:54 Cloudy 62 16.7 59 15 90 90 Calm 29.39 995 10 16.0934 0 0
7:54 am 07:54 Mostly Cloudy 64 17.8 62 16.7 93 93 SE 8 13 29.36 994 10 16.0934 0 0
8:54 am 08:54 Cloudy 67 19.4 62 16.7 84 84 SSE 14 22 29.35 994 10 16.0934 0 0
9:54 am 09:54 Cloudy with Light Rain 67 19.4 63 17.2 87 87 SSE 12 19 29.33 993 10 16.0934 0.02 0.508
10:54 am 10:54 Cloudy with Light Rain 67 19.4 62 16.7 84 84 SSE 16 26 29.3 992 9 14.48406 0.01 0.254
11:32 am 11:32 Cloudy 70 21.1 62 16.7 76 76 S 15 24 29.29 992 10 16.0934 0 0.0254
11:54 am 11:54 Mostly Cloudy 71 21.7 62 16.7 73 73 S 18 30 29.28 992 10 16.0934 0 0.0254
12:54 pm 12:54 Mostly Sunny 74 23.3 60 15.6 62 62 S 16 26 29.25 991 10 16.0934 0 0
1:35 pm 13:35 Mostly Cloudy with Nearby Thunderstorms 71 21.7 57 13.9 61 61 S 15 24 29.23 990 10 16.0934 0 0
1:46 pm 13:46 Windy with Storms Likely 68 20 57 13.9 68 68 W 26 43 29.26 991 8 12.87472 0 0.0254
1:51 pm 13:51 Mostly Cloudy with Heavy Thunderstorms 61 16 54 12 77 77 W 26 43 29.32 993 1.5 2.41401 0.02 0.508
1:54 pm 13:54 Mostly Cloudy with Heavy Thunderstorms 58 14.4 53 11.7 84 84 W 25 41 29.3 992 0.75 1.207005 0.07 1.778
2:01 pm 14:01 Cloudy with Heavy Thunderstorms 57 13.9 53 11.7 87 87 W 12 19 29.35 994 0.75 1.207005 0.16 4.064
2:05 pm 14:05 Cloudy with Thunderstorms 57 13.9 54 12.2 90 90 S 10 17 29.35 994 2 3.21868 0.18 4.572
2:21 pm 14:21 Cloudy with Nearby Thunderstorms 57 13.9 55 12.8 93 93 SW 14 22 29.35 994 1.25 2.011675 0.3 7.62
2:32 pm 14:32 Cloudy with Nearby Thunderstorms 58 14.4 56 13.3 93 93 W 16 26 29.35 994 2 3.21868 0.34 8.636
2:43 pm 14:43 Cloudy with Thunderstorms 59 15 56 13.3 90 90 W 13 20 29.35 994 3 4.82802 0.4 10.16
2:54 pm 14:54 Cloudy with Light Thunderstorms 60 15.6 57 13.9 90 90 W 8 13 29.32 993 8 12.87472 0.41 10.414
3:02 pm 15:02 Mostly Cloudy with Light Rain 62 16.7 57 13.9 84 84 WSW 10 17 29.35 994 10 16.0934 0 0.0254
3:54 pm 15:54 Mostly Cloudy 66 18.9 54 12.2 65 65 SW 18 30 29.32 993 10 16.0934 0 0.0254
4:54 pm 16:54 Mostly Cloudy 66 18.9 54 12.2 65 65 SW 25 41 29.37 995 10 16.0934 0 0
5:54 pm 17:54 Mostly Cloudy 64 17.8 54 12.2 70 70 SW 15 24 29.39 995 10 16.0934 0 0
6:54 pm 18:54 Mostly Sunny 67 19.4 55 12.8 66 66 WSW 18 30 29.4 996 10 16.0934 0 0
7:54 pm 19:54 Partly Cloudy 65 18.3 55 12.8 70 70 W 22 35 29.43 997 10 16.0934 0 0
8:12 pm 20:12 Mostly Cloudy 64 17.8 54 12.2 70 70 W 17 28 29.47 998 10 16.0934 0 0
8:54 pm 20:54 Cloudy 63 17.2 54 12.2 73 73 W 17 28 29.48 998 10 16.0934 0 0
9:23 pm 21:23 Cloudy 62 16.7 55 12.8 78 78 W 20 31 29.53 1000 10 16.0934 0 0
9:35 pm 21:35 Cloudy 62 16.7 55 12.8 78 78 W 15 24 29.56 1001 10 16.0934 0 0
9:54 pm 21:54 Cloudy 62 16.7 55 12.8 78 78 WNW 13 20 29.54 1001 10 16.0934 0 0
10:54 pm 22:54 Cloudy 61 16.1 53 11.7 75 75 WNW 20 31 29.62 1003 10 16.0934 0 0
11:54 pm 23:54 Cloudy 59 15 50 10 72 72 WNW 21 33 29.66 1004 10 16.0934 0 0

Powered by AerisWeather